GW5900 Weather Reports


time (UTC)temp
C
wind
direction
speed
KPH
gust
KPH
rain 1hr
cm
rain 24hr
cm
rain mn
cm
humidity
%
barometer
mb
20260505022902 21 133 4.8 12.9 0.00 0.00 0.00 57 1007.8
20260505022353 21 135 4.8 12.9 0.00 0.00 0.00 57 1007.8
20260505021843 21 148 4.8 12.9 0.00 0.00 0.00 57 1007.8
20260505021603 21 142 4.8 8.0 0.00 0.00 0.00 56 1007.8
20260505020804 21 132 4.8 14.5 0.00 0.00 0.00 56 1007.8
20260505020254 21 176 1.6 14.5 0.00 0.00 0.00 56 1007.8
20260505015754 22 155 4.8 8.0 0.00 0.00 0.00 55 1007.5
20260505015243 22 143 4.8 8.0 0.00 0.00 0.00 55 1007.5
20260505014744 22 143 4.8 12.9 0.00 0.00 0.00 55 1007.5
20260505014227 22 129 4.8 12.9 0.00 0.00 0.00 55 1007.4
20260505013707 22 149 4.8 8.0 0.00 0.00 0.00 55 1007.4
20260505013204 22 132 4.8 8.0 0.00 0.00 0.00 53 1007.4
20260505012658 22 166 4.8 8.0 0.00 0.00 0.00 54 1007.4
20260505012154 22 157 4.8 14.5 0.00 0.00 0.00 53 1007.4
20260505011654 22 149 6.4 14.5 0.00 0.00 0.00 53 1007.4
20260505011121 22 135 6.4 14.5 0.00 0.00 0.00 53 1007.4
20260505010541 22 136 4.8 14.5 0.00 0.00 0.00 53 1007.4
20260505010006 23 143 4.8 12.9 0.00 0.00 0.00 51 1007.4
20260505005432 23 138 4.8 14.5 0.00 0.00 0.00 53 1007.4
20260505004901 23 152 4.8 14.5 0.00 0.00 0.00 51 1007.4
20260505004327 23 155 4.8 12.9 0.00 0.00 0.00 51 1007.1
20260505003752 23 146 4.8 12.9 0.00 0.00 0.00 51 1007.1
20260505003220 23 140 1.6 12.9 0.00 0.00 0.00 53 1007.1
20260505002650 23 143 1.6 8.0 0.00 0.00 0.00 51 1007.4
20260505002359 23 162 4.8 12.9 0.00 0.00 0.00 50 1007.4
20260505001824 23 122 6.4 14.5 0.00 0.00 0.00 49 1007.4
20260505001030 23 132 6.4 16.1 0.00 0.00 0.00 49 1007.3
20260505000718 24 138 6.4 16.1 0.00 0.00 0.00 49 1007.3
20260504235929 24 145 6.4 19.3 0.00 0.00 0.00 48 1007.3
20260504235354 24 173 6.4 19.3 0.00 0.00 0.00 47 1007.4
20260504234823 24 131 6.4 19.3 0.00 0.00 0.00 47 1007.4
20260504234253 24 225 4.8 14.5 0.00 0.00 0.00 47 1007.7
20260504233722 24 135 4.8 14.5 0.00 0.00 0.00 47 1007.7
20260504233150 25 142 4.8 16.1 0.00 0.00 0.00 46 1007.7
20260504232620 25 146 4.8 16.1 0.00 0.00 0.00 45 1008.0
20260504232050 25 148 4.8 12.9 0.00 0.00 0.00 45 1008.0
20260504231520 25 138 4.8 12.9 0.00 0.00 0.00 44 1008.0
20260504230953 25 207 6.4 19.3 0.00 0.00 0.00 45 1008.1
20260504230642 25 149 6.4 19.3 0.00 0.00 0.00 44 1008.1
20260504225911 25 152 6.4 16.1 0.00 0.00 0.00 43 1008.2
20260504225336 25 121 9.7 19.3 0.00 0.00 0.00 44 1008.2
20260504224806 25 188 8.0 16.1 0.00 0.00 0.00 42 1008.2
20260504224234 26 205 8.0 16.1 0.00 0.00 0.00 42 1008.2
20260504223704 26 208 8.0 22.5 0.00 0.00 0.00 42 1008.2
20260504223132 26 116 8.0 27.4 0.00 0.00 0.00 41 1008.2
20260504222603 26 152 14.5 33.8 0.00 0.00 0.00 40 1008.3
20260504222030 26 176 14.5 33.8 0.00 0.00 0.00 41 1008.3
20260504221458 26 176 12.9 27.4 0.00 0.00 0.00 40 1008.3
20260504221209 26 211 9.7 20.9 0.00 0.00 0.00 41 1008.5
20260504220429 26 164 8.0 22.5 0.00 0.00 0.00 41 1008.5
20260504215926 26 238 9.7 22.5 0.00 0.00 0.00 41 1008.5
20260504215421 26 119 9.7 22.5 0.00 0.00 0.00 41 1008.5
20260504214922 26 139 9.7 30.6 0.00 0.00 0.00 41 1008.5
20260504214402 26 252 9.7 30.6 0.00 0.00 0.00 42 1008.6
20260504213852 26 225 8.0 22.5 0.00 0.00 0.00 40 1008.6
20260504213352 26 166 9.7 22.5 0.00 0.00 0.00 39 1008.6
20260504213101 26 159 9.7 22.5 0.00 0.00 0.00 40 1008.7
20260504212338 26 142 9.7 19.3 0.00 0.00 0.00 41 1008.7
20260504211817 26 143 9.7 30.6 0.00 0.00 0.00 38 1008.7
20260504211250 26 119 9.7 30.6 0.00 0.00 0.00 40 1008.9
20260504210746 26 200 8.0 22.5 0.00 0.00 0.00 39 1008.9
20260504210446 26 173 8.0 22.5 0.00 0.00 0.00 41 1008.9
20260504205659 26 136 8.0 22.5 0.00 0.00 0.00 39 1009.1
20260504205159 26 133 8.0 20.9 0.00 0.00 0.00 40 1009.1
20260504205010 26 200 9.7 22.5 0.00 0.00 0.00 41 1009.1
20260504203630 26 136 8.0 22.5 0.00 0.00 0.00 41 1009.3
20260504203128 26 157 9.7 27.4 0.00 0.00 0.00 41 1009.3
20260504202608 26 248 12.9 29.0 0.00 0.00 0.00 38 1009.6
20260504202104 27 121 9.7 22.5 0.00 0.00 0.00 37 1009.6
20260504201540 26 138 9.7 22.5 0.00 0.00 0.00 40 1009.6
20260504201037 26 125 12.9 29.0 0.00 0.00 0.00 39 1009.7
20260504200518 26 131 14.5 29.0 0.00 0.00 0.00 39 1009.8
20260504200014 26 94 14.5 29.0 0.00 0.00 0.00 39 1009.8
20260504195444 26 194 14.5 29.0 0.00 0.00 0.00 40 1010.1
20260504195146 26 164 12.9 29.0 0.00 0.00 0.00 39 1010.1
20260504194900 26 176 12.9 33.8 0.00 0.00 0.00 39 1010.1
20260504194131 26 190 14.5 37.0 0.00 0.00 0.00 40 1010.1
20260504193404 26 102 16.1 37.0 0.00 0.00 0.00 40 1010.1
20260504192838 26 104 12.9 30.6 0.00 0.00 0.00 40 1010.4
20260504192603 26 236 8.0 29.0 0.00 0.00 0.00 38 1010.4
20260504191807 26 224 9.7 29.0 0.00 0.00 0.00 39 1010.4
20260504191304 26 108 9.7 27.4 0.00 0.00 0.00 40 1010.7
20260504190738 26 112 12.9 29.0 0.00 0.00 0.00 41 1010.7
20260504190454 26 156 14.5 30.6 0.00 0.00 0.00 40 1010.7
20260504185710 26 139 14.5 33.8 0.00 0.00 0.00 41 1010.7
20260504185206 26 180 14.5 33.8 0.00 0.00 0.00 41 1010.7
20260504184640 26 259 12.9 22.5 0.00 0.00 0.00 42 1010.7
20260504184136 26 35 12.9 29.0 0.00 0.00 0.00 42 1010.9
20260504183609 26 129 9.7 29.0 0.00 0.00 0.00 41 1010.9
20260504183106 25 224 9.7 22.5 0.00 0.00 0.00 41 1010.9
20260504182802 25 13 12.9 27.4 0.00 0.00 0.00 42 1010.9
20260504182036 25 218 8.0 27.4 0.00 0.00 0.00 43 1010.9
20260504181509 25 228 9.7 20.9 0.00 0.00 0.00 39 1010.9
20260504181002 25 201 9.7 33.8 0.00 0.00 0.00 40 1011.2
20260504180458 25 248 9.7 33.8 0.00 0.00 0.00 42 1011.2
20260504175934 25 166 12.9 22.5 0.00 0.00 0.00 43 1011.2
20260504175434 25 220 14.5 29.0 0.00 0.00 0.00 40 1011.6
20260504174908 25 131 14.5 43.5 0.00 0.00 0.00 41 1011.6
20260504174354 25 143 12.9 43.5 0.00 0.00 0.00 41 1012.0
20260504173850 25 225 8.0 22.5 0.00 0.00 0.00 40 1012.0
20260504173326 25 84 8.0 29.0 0.00 0.00 0.00 38 1012.0
20260504172828 25 135 9.7 27.4 0.00 0.00 0.00 40 1012.0
20260504172309 25 258 9.7 27.4 0.00 0.00 0.00 41 1012.0
20260504171808 25 140 12.9 27.4 0.00 0.00 0.00 41 1012.0
20260504171242 25 172 14.5 27.4 0.00 0.00 0.00 41 1012.2
20260504170924 25 124 14.5 41.8 0.00 0.00 0.00 41 1012.2
20260504170144 25 90 14.5 29.0 0.00 0.00 0.00 39 1012.2
20260504160429 23 253 8.0 27.4 0.00 0.00 0.00 46 1012.8
20260504150713 21 157 6.4 16.1 0.00 0.00 0.00 56 1012.9
20260504150141 21 143 8.0 19.3 0.00 0.00 0.00 58 1012.9
20260504140853 18 204 4.8 16.1 0.00 0.00 0.00 65 1013.3
20260504140354 18 211 6.4 19.3 0.00 0.00 0.00 66 1013.2
20260504130619 16 160 6.4 16.1 0.00 0.00 0.00 76 1012.7
20260504100143 14 172 0.0 1.6 0.00 0.00 0.00 83 1012.3
20260504090135 15 172 1.6 4.8 0.00 0.00 0.00 78 1012.4
20260504081947 16 172 1.6 4.8 0.00 0.00 0.00 75 1012.6
20260504081639 16 172 1.6 4.8 0.00 0.00 0.00 75 1012.6
20260504080838 16 173 0.0 4.8 0.00 0.00 0.00 74 1012.6
20260504080333 16 180 0.0 4.8 0.00 0.00 0.00 74 1012.6
20260504050212 18 146 1.6 4.8 0.00 0.00 0.00 66 1013.6
20260504045855 18 146 1.6 4.8 0.00 0.00 0.00 66 1013.6
20260504045056 18 146 0.0 4.8 0.00 0.00 0.00 66 1013.6
20260504044520 18 146 0.0 4.8 0.00 0.00 0.00 65 1013.6
20260504044229 18 146 1.6 4.8 0.00 0.00 0.00 65 1013.5
20260504043654 18 146 1.6 8.0 0.00 0.00 0.00 64 1013.5
20260504042858 18 146 1.6 8.0 0.00 0.00 0.00 63 1013.7
20260504042551 19 146 1.6 8.0 0.00 0.00 0.00 62 1013.8
20260504041753 19 145 1.6 8.0 0.00 0.00 0.00 62 1013.8
20260504041214 19 145 1.6 8.0 0.00 0.00 0.00 61 1014.0
20260504040642 19 129 1.6 8.0 0.00 0.00 0.00 61 1014.0
20260504040110 19 146 1.6 8.0 0.00 0.00 0.00 61 1014.0
20260504035538 20 140 1.6 8.0 0.00 0.00 0.00 60 1014.0
20260504035008 20 142 1.6 8.0 0.00 0.00 0.00 60 1014.0
20260504034438 20 146 1.6 8.0 0.00 0.00 0.00 60 1013.9
20260504034129 20 163 1.6 4.8 0.00 0.00 0.00 60 1013.9
20260504033400 20 124 1.6 12.9 0.00 0.00 0.00 59 1013.9
20260504032827 20 116 1.6 12.9 0.00 0.00 0.00 58 1014.0
20260504032315 20 173 1.6 8.0 0.00 0.00 0.00 58 1014.0
20260504031744 20 132 1.6 12.9 0.00 0.00 0.00 58 1014.0
20260504031654 20 131 1.6 12.9 0.00 0.00 0.00 57 1013.9
20260504030645 20 146 4.8 8.0 0.00 0.00 0.00 58 1013.9
20260504030114 20 143 4.8 8.0 0.00 0.00 0.00 58 1013.9
20260504025544 20 155 1.6 8.0 0.00 0.00 0.00 57 1013.9
20260504025014 20 143 4.8 8.0 0.00 0.00 0.00 57 1013.9
20260504024443 20 146 4.8 12.9 0.00 0.00 0.00 57 1013.8
20260504024135 20 146 4.8 12.9 0.00 0.00 0.00 57 1013.8
20260504023342 20 139 1.6 12.9 0.00 0.00 0.00 57 1013.8